KB2KRJ Weather Reports


Display with metric or nautical units.
time (UTC)temp
F
wind
direction
speed
MPH
gust
MPH
rain 1hr
in
rain 24hr
in
rain mn
in
humidity
%
barometer
mb
20260508024552 40 78 0.0 0.0 0.00 0.01 0.00 70 1011.2
20260508023046 40 78 0.0 0.0 0.00 0.01 0.00 69 1011.0
20260508021544 41 78 0.0 0.0 0.00 0.01 0.00 69 1011.0
20260508020042 41 78 0.0 0.0 0.00 0.01 0.00 70 1010.9
20260508014543 41 78 0.0 0.0 0.00 0.01 0.00 68 1010.9
20260508013045 43 78 0.0 0.0 0.00 0.01 0.00 65 1010.8
20260508011539 44 78 0.0 0.0 0.00 0.01 0.00 64 1010.6
20260508010038 45 78 0.0 0.0 0.00 0.01 0.00 64 1010.2
20260508004538 46 78 0.0 0.0 0.00 0.01 0.00 62 1010.0
20260508003038 47 78 0.0 1.0 0.00 0.01 0.00 60 1009.7
20260508001536 49 78 0.0 2.0 0.00 0.01 0.00 54 1009.6
20260508000039 51 79 0.0 2.0 0.00 0.01 0.00 48 1009.4
20260507234536 52 114 0.0 1.0 0.00 0.01 0.00 47 1009.3
20260507233042 52 114 0.0 3.0 0.00 0.01 0.00 47 1009.2
20260507231537 53 22 0.0 4.0 0.00 0.01 0.00 45 1009.0
20260507230036 53 45 0.0 5.0 0.00 0.01 0.00 45 1009.0
20260507224540 54 42 1.0 4.0 0.00 0.01 0.00 44 1008.9
20260507223034 54 37 0.0 6.0 0.00 0.01 0.00 45 1008.9
20260507221538 54 188 0.0 6.0 0.00 0.01 0.00 43 1008.9
20260507220033 54 21 1.0 8.0 0.00 0.01 0.00 44 1009.0
20260507214534 55 116 0.0 3.0 0.00 0.02 0.00 44 1008.9
20260507213041 55 349 1.0 5.0 0.00 0.02 0.00 43 1008.9
20260507211531 56 219 2.0 6.0 0.00 0.02 0.00 41 1008.8
20260507210030 56 77 1.0 5.0 0.00 0.02 0.00 41 1008.9
20260507204529 56 185 1.0 7.0 0.00 0.02 0.00 45 1008.8
20260507203037 56 180 1.0 5.0 0.00 0.02 0.00 44 1008.9
20260507201529 55 275 0.0 9.0 0.00 0.02 0.00 46 1009.1
20260507200027 56 180 0.0 7.0 0.00 0.02 0.00 46 1009.1
20260507194526 55 270 1.0 5.0 0.00 0.03 0.00 44 1009.2
20260507193025 55 178 0.0 5.0 0.00 0.03 0.00 50 1009.4
20260507191524 54 188 3.0 8.0 0.00 0.03 0.00 45 1009.6
20260507190024 56 187 2.0 7.0 0.00 0.03 0.00 44 1009.7
20260507184522 54 213 0.0 6.0 0.00 0.03 0.00 46 1009.8
20260507183022 55 202 2.0 7.0 0.00 0.03 0.00 43 1009.9
20260507181527 55 229 1.0 13.0 0.00 0.03 0.00 48 1010.0
20260507180025 55 167 3.0 6.0 0.00 0.03 0.00 46 1010.2
20260507174521 55 206 1.0 4.0 0.00 0.04 0.00 48 1010.1
20260507173030 55 207 2.0 8.0 0.00 0.04 0.00 45 1010.2
20260507171519 55 196 1.0 9.0 0.00 0.04 0.00 45 1010.1
20260507170018 56 211 2.0 12.0 0.00 0.04 0.00 46 1010.1
20260507164517 56 67 0.0 7.0 0.00 0.06 0.00 46 1010.3
20260507163015 55 19 1.0 7.0 0.00 0.06 0.00 47 1010.4
20260507161514 55 196 4.0 8.0 0.00 0.06 0.00 47 1010.6
20260507160014 55 206 2.0 7.0 0.00 0.06 0.00 48 1010.9
20260507154513 54 232 1.0 4.0 0.00 0.07 0.00 49 1011.1
20260507153011 53 86 1.0 3.0 0.00 0.07 0.00 49 1011.4
20260507151509 53 185 1.0 8.0 0.00 0.07 0.00 53 1011.3
20260507150017 52 5 2.0 7.0 0.00 0.07 0.00 49 1011.5
20260507144519 52 197 1.0 6.0 0.00 0.10 0.00 53 1011.7
20260507143004 51 200 0.0 6.0 0.00 0.10 0.00 53 1011.5
20260507141502 51 155 1.0 6.0 0.00 0.10 0.00 52 1011.7
20260507134609 49 190 2.0 9.0 0.00 0.10 0.00 52 1011.9
20260507133133 49 231 1.0 8.0 0.00 0.10 0.00 54 1012.0
20260507131558 48 227 1.0 4.0 0.00 0.10 0.00 56 1011.9
20260507130109 47 169 3.0 8.0 0.00 0.10 0.00 57 1012.1
20260507124558 46 97 2.0 7.0 0.00 0.10 0.00 60 1012.0
20260507123058 46 225 1.0 4.0 0.00 0.10 0.00 61 1012.0
20260507121611 45 196 0.0 5.0 0.00 0.10 0.00 66 1012.1
20260507120100 44 196 1.0 6.0 0.00 0.10 0.00 67 1012.1
20260507114634 43 209 1.0 3.0 0.00 0.10 0.00 69 1012.0
20260507113054 43 200 0.0 3.0 0.00 0.10 0.00 70 1011.9
20260507111558 42 221 0.0 4.0 0.00 0.10 0.00 70 1011.8
20260507110051 42 107 0.0 2.0 0.00 0.10 0.00 68 1011.7
20260507104549 42 212 0.0 3.0 0.00 0.10 0.00 68 1011.6
20260507103047 42 316 0.0 3.0 0.00 0.10 0.00 65 1011.2
20260507101546 43 298 0.0 2.0 0.00 0.10 0.00 62 1011.1
20260507100040 44 292 0.0 2.0 0.00 0.10 0.00 62 1011.0
20260507094536 44 26 0.0 5.0 0.00 0.10 0.00 60 1010.8
20260507093034 45 22 0.0 2.0 0.00 0.10 0.00 60 1010.7
20260507091540 47 22 0.0 2.0 0.00 0.10 0.00 51 1010.5
20260507090035 47 15 0.0 2.0 0.00 0.10 0.00 48 1010.6
20260507084529 47 32 0.0 3.0 0.00 0.10 0.00 48 1010.7
20260507083032 47 114 0.0 3.0 0.00 0.10 0.00 48 1010.6
20260507081526 47 103 0.0 3.0 0.00 0.10 0.00 48 1010.6
20260507080026 47 77 0.0 3.0 0.00 0.10 0.00 46 1010.8
20260507074525 47 303 0.0 2.0 0.00 0.10 0.00 46 1010.9
20260507073024 47 355 0.0 2.0 0.00 0.10 0.00 47 1010.8
20260507071521 47 27 0.0 4.0 0.00 0.10 0.00 48 1010.5
20260507070120 48 34 0.0 7.0 0.00 0.10 0.00 49 1009.8
20260507064518 48 82 1.0 4.0 0.00 0.10 0.00 47 1009.9
20260507063018 48 49 0.0 2.0 0.00 0.10 0.00 45 1009.8
20260507061516 48 50 0.0 4.0 0.00 0.10 0.00 46 1009.8
20260507060014 48 57 0.0 3.0 0.00 0.10 0.00 46 1009.8
20260507054518 49 49 0.0 1.0 0.00 0.10 0.00 44 1009.8
20260507053012 49 53 0.0 2.0 0.00 0.10 0.00 43 1009.8
20260507051509 49 53 0.0 2.0 0.00 0.10 0.00 44 1009.6
20260507050006 49 46 0.0 2.0 0.00 0.10 0.00 42 1009.7
20260507044505 50 56 0.0 0.0 0.00 0.10 0.00 40 1009.9
20260507043008 50 55 0.0 1.0 0.00 0.10 0.00 39 1010.2
20260507041601 50 55 0.0 2.0 0.00 0.10 0.00 41 1010.0
20260507040101 50 55 0.0 3.0 0.01 0.10 0.00 41 1010.2
20260507034557 50 190 0.0 2.0 0.01 0.10 0.10 38 1009.6
20260507033053 51 186 0.0 2.0 0.01 0.10 0.10 37 1009.9
20260507031544 51 186 0.0 4.0 0.01 0.10 0.10 36 1009.9
20260507030040 51 167 0.0 4.0 0.00 0.09 0.09 32 1010.1